Theta_e
334 333 333 332 331 332 332 332 332 332 329 323 321 322 322 325 327 324 322 326 334 336 335 336 333 333 333 332 332 333 333 332 332 332 331 329 325 323 322 322 322 321 320 317 313 311 310 310 311 313 315 316 318 319 319 319 319 319 319 317 316 316 316 317 318 319 320 320 320 321 321 321 321 320 319 319 319 320 321 320 319 320 320 319 317
333 333 333 332 332 332 332 332 331 332 332 329 326 326 327 326 328 326 325 328 333 334 335 335 333 332 333 333 332 331 332 332 332 332 331 330 327 325 325 324 322 322 320 316 312 311 310 311 313 315 317 318 319 320 320 320 320 319 319 318 317 316 317 318 318 319 320 320 320 321 321 322 322 321 320 319 319 321 322 321 320 319 319 320 319
331 332 332 332 332 332 332 332 332 332 331 331 329 328 328 329 329 329 327 327 329 330 333 334 333 332 332 333 332 330 332 332 331 331 330 330 329 328 327 325 323 322 318 314 312 312 311 313 315 317 318 319 321 321 321 321 320 319 317 317 317 317 317 318 319 320 320 321 321 321 321 322 322 322 321 320 320 321 322 321 321 320 320 321 321
329 330 331 331 331 331 332 332 332 332 331 331 331 330 328 329 330 331 328 326 328 329 330 332 333 333 331 332 332 331 332 332 331 331 329 329 330 330 330 327 323 320 317 315 313 313 313 315 317 319 320 322 323 323 322 321 321 320 318 317 317 317 317 319 319 321 321 321 321 321 321 321 321 321 321 320 321 321 321 321 321 322 322 322 322
329 330 330 330 330 330 330 330 331 332 331 330 331 331 330 329 329 331 329 327 328 328 328 331 333 333 331 331 332 332 332 332 330 330 330 330 331 331 331 329 324 318 316 316 315 314 316 317 319 322 324 325 325 324 323 322 321 321 319 318 317 317 318 319 320 321 321 322 322 322 322 322 321 321 321 320 321 320 320 320 321 322 322 323 323
329 330 330 329 328 328 328 329 329 330 331 330 329 330 330 329 329 329 328 327 327 328 328 330 333 333 331 331 332 332 333 332 329 330 332 331 331 332 331 330 328 323 320 319 316 315 317 320 323 326 327 327 327 325 323 322 322 321 321 319 318 317 318 320 321 321 322 322 322 321 321 321 321 321 320 320 321 320 319 321 322 322 322 323 322
329 329 329 328 327 326 327 327 328 329 330 329 329 329 329 329 329 328 328 328 328 328 329 331 333 333 331 331 332 332 332 332 330 331 333 332 331 332 331 330 329 328 327 324 320 317 317 321 326 327 328 328 328 326 323 322 322 322 321 320 318 318 319 320 321 321 322 322 321 320 321 321 321 321 320 321 321 320 320 321 322 322 322 322 321
330 330 329 328 328 327 327 327 327 327 327 327 327 328 329 329 329 329 329 330 329 329 330 332 333 333 332 331 332 332 332 332 331 331 332 332 331 331 331 330 330 329 329 328 325 321 319 321 325 326 328 328 328 328 325 322 322 322 322 320 318 319 320 321 321 322 322 321 320 319 320 321 321 321 321 321 321 321 321 322 321 321 321 320 319
332 331 331 331 330 329 328 327 327 327 326 326 327 327 329 330 330 329 329 330 330 330 330 332 333 333 332 331 332 332 332 333 332 331 332 331 330 331 331 330 330 330 329 330 329 326 324 324 325 325 327 328 328 328 327 324 323 323 323 321 320 320 320 320 321 322 322 321 320 319 319 320 321 321 321 321 321 321 321 322 321 321 320 318 316
332 332 332 332 332 330 330 329 329 329 328 327 326 327 328 330 330 330 330 330 331 331 330 331 332 332 332 331 332 332 332 332 332 330 330 330 329 329 330 330 330 330 330 330 329 329 327 327 327 325 326 327 327 328 328 327 325 324 324 322 321 321 321 321 321 322 323 321 319 317 317 319 320 321 322 322 322 322 322 322 321 319 318 317 314
332 332 331 332 332 331 330 330 330 330 330 329 328 326 327 327 327 328 330 330 330 331 331 330 330 331 331 331 331 332 332 332 332 331 329 330 328 328 330 330 330 330 330 330 329 329 328 327 328 326 325 326 326 326 328 328 327 326 325 324 323 322 322 321 322 322 323 322 320 317 316 318 320 321 322 321 322 322 322 321 319 317 315 313 310
330 331 331 331 332 332 331 330 329 330 330 330 330 328 327 326 326 327 329 330 330 331 331 331 330 331 331 331 331 332 332 332 332 331 329 330 328 327 330 330 330 330 330 329 328 328 328 328 328 326 325 326 325 325 326 328 328 328 326 325 325 324 324 323 322 323 323 323 322 318 316 317 319 320 321 321 321 321 321 320 317 313 311 308 305
332 332 332 332 332 332 332 331 330 331 331 331 331 331 329 329 328 329 330 330 330 330 330 331 331 331 331 331 332 332 332 331 331 330 328 329 328 326 329 330 330 330 329 329 329 328 328 328 328 327 326 324 323 322 324 327 328 328 327 326 326 326 325 323 323 325 324 322 322 320 317 316 318 320 321 321 320 321 321 319 313 307 305 304 302
334 334 334 334 334 333 333 333 333 332 332 331 332 332 331 331 330 330 331 331 330 330 330 331 331 331 330 331 332 331 331 331 331 329 327 329 329 327 330 331 330 330 330 330 330 329 328 328 328 328 326 325 324 320 321 325 327 328 328 327 327 326 326 325 325 326 325 323 321 321 319 317 319 321 321 321 320 320 319 313 306 303 302 302 301
334 335 335 335 335 334 334 334 334 334 334 333 333 333 333 333 332 331 331 331 331 331 330 330 331 331 330 331 332 332 331 331 331 330 328 329 329 328 330 331 331 330 330 330 330 329 329 329 328 328 327 327 326 321 319 324 326 327 327 328 328 327 326 326 327 327 326 324 320 320 320 317 318 321 321 320 319 318 314 307 303 302 301 301 301
333 334 334 334 333 333 333 333 333 333 333 334 333 334 334 334 333 332 332 332 332 331 330 330 331 332 331 331 332 332 331 330 330 330 329 329 329 328 329 330 331 330 330 330 329 329 329 329 329 328 327 327 327 323 321 323 325 325 326 327 328 327 327 327 327 327 327 325 321 319 320 317 316 319 320 319 318 316 311 304 302 301 301 301 300
332 333 334 334 334 334 333 332 332 332 332 334 334 334 333 334 334 334 333 333 333 332 331 331 330 331 331 331 331 330 330 330 329 329 329 329 329 328 327 329 330 330 330 329 329 329 329 329 329 327 327 327 327 326 323 322 323 323 324 326 327 328 328 327 327 327 327 326 321 318 317 315 315 317 319 317 316 316 311 303 301 301 300 300 300
333 333 334 334 335 335 334 333 333 333 333 333 333 332 332 332 332 332 332 332 333 333 332 332 331 331 331 331 330 330 329 329 329 329 329 329 329 329 328 327 328 329 329 329 329 329 328 329 328 328 328 326 326 327 326 324 323 323 322 322 325 327 327 327 327 327 327 326 323 318 315 314 314 315 314 311 311 313 308 302 301 301 300 300 300
333 334 335 334 334 335 334 334 334 334 332 330 331 331 331 332 331 330 330 332 333 333 332 332 332 332 331 330 330 330 330 329 328 328 329 329 329 329 328 327 327 328 329 329 329 329 328 328 328 328 328 327 326 327 328 327 326 325 321 315 318 322 324 326 326 326 326 326 324 317 312 315 316 313 309 305 305 306 304 301 301 301 300 300 301
333 333 334 334 334 334 334 334 334 334 332 331 331 331 331 332 332 331 331 332 332 332 332 332 332 332 331 330 330 330 330 329 328 328 328 328 328 328 328 328 328 328 328 329 329 329 328 328 328 328 328 327 326 326 327 327 327 326 321 315 315 315 319 325 325 326 326 326 325 315 309 314 317 312 305 302 302 302 301 301 301 300 300 301 301
333 333 334 333 333 333 333 334 334 333 333 332 332 332 332 332 332 332 332 332 332 332 333 332 332 332 332 331 330 330 330 329 329 329 328 327 327 327 327 328 329 329 329 329 329 329 329 328 328 329 328 327 327 327 327 327 327 326 321 319 319 314 316 323 325 325 326 325 323 312 306 314 317 311 303 301 301 301 300 301 300 300 301 301 302
333 333 333 333 332 333 333 333 333 332 332 332 332 332 332 332 332 332 333 332 331 332 333 332 332 332 332 332 331 330 330 329 329 329 328 327 327 326 325 326 327 328 328 329 329 329 328 328 328 328 328 328 327 327 327 327 327 325 322 320 320 317 316 321 324 325 325 326 320 308 304 313 317 311 303 301 301 300 301 300 300 301 301 302 304
332 332 333 333 332 332 332 333 333 332 332 331 332 332 332 332 332 332 332 332 332 332 332 333 332 331 331 332 331 330 330 329 329 329 328 327 326 326 324 324 326 327 328 328 329 328 328 328 328 328 328 328 327 326 326 326 325 324 322 318 318 318 316 319 325 325 325 325 317 306 304 308 311 308 302 301 301 300 301 300 300 301 302 303 304
330 331 331 332 332 332 332 332 333 332 332 331 331 331 331 332 332 331 331 332 332 331 331 332 332 331 330 331 331 331 330 329 328 328 328 327 326 326 325 325 326 328 328 328 329 328 328 328 328 328 328 327 328 326 325 325 324 324 322 316 315 316 313 318 324 324 325 324 312 304 304 304 305 304 301 301 301 300 300 300 301 302 303 304 305
329 329 329 330 330 330 331 331 331 331 331 331 331 331 331 331 331 331 331 331 331 331 331 331 331 331 331 331 331 331 330 329 328 328 328 328 327 327 326 325 325 326 328 328 329 328 328 328 328 328 328 327 328 327 325 325 324 325 321 314 312 311 311 318 324 324 324 318 307 304 304 303 303 303 301 301 301 301 300 300 301 302 303 305 306
328 328 329 329 329 330 330 331 331 330 330 330 330 330 330 330 330 331 331 331 331 331 331 331 331 330 331 331 331 330 330 329 328 328 329 329 328 327 327 326 325 326 328 328 329 329 328 328 328 328 328 327 327 326 326 326 325 325 321 313 309 307 311 319 324 325 320 310 304 304 303 302 303 302 301 301 301 301 301 301 302 303 304 305 306
328 328 328 329 330 330 330 330 330 330 330 330 329 329 328 328 329 330 330 331 331 330 330 331 331 330 330 330 330 330 330 329 328 329 329 329 328 327 327 326 327 328 328 328 329 329 328 327 327 328 328 327 327 326 326 326 325 325 323 316 308 305 311 319 323 322 314 305 304 304 302 302 302 302 302 301 301 301 301 302 302 303 304 305 307
327 327 328 329 329 329 329 329 329 329 329 329 328 328 327 327 328 328 329 330 330 330 330 330 331 330 331 331 330 330 330 328 328 328 328 328 328 327 327 327 327 328 329 329 329 329 328 327 327 328 328 327 327 327 326 326 326 325 324 322 313 305 308 315 318 315 308 304 305 303 302 303 301 302 302 301 301 301 301 302 303 304 304 306 308
326 326 326 327 328 328 328 328 328 328 328 328 328 327 326 326 327 327 328 329 330 330 330 330 330 330 330 331 331 330 329 328 327 327 327 328 327 327 327 328 328 328 328 328 328 328 328 328 327 327 328 327 327 327 327 326 325 324 324 324 317 307 306 309 309 308 305 305 305 303 302 302 301 302 302 301 302 302 302 302 303 304 305 307 310
323 323 324 326 327 327 327 327 327 327 326 326 325 325 325 325 326 327 328 329 329 329 330 330 330 329 330 330 330 330 329 327 326 326 327 328 328 328 328 328 328 328 327 327 327 327 328 328 327 326 327 327 327 327 327 326 325 324 324 324 319 309 305 306 306 305 305 305 304 303 302 302 302 302 302 302 302 302 302 302 303 304 306 308 311
322 322 323 325 326 326 326 325 325 325 325 324 324 324 324 325 326 327 327 328 328 328 329 329 330 330 330 330 330 330 328 326 326 326 327 327 327 327 327 326 327 328 328 327 326 326 327 328 327 326 327 327 327 327 327 325 324 324 324 324 321 312 306 306 306 305 305 305 304 303 302 302 302 302 302 302 302 302 302 302 303 304 306 310 312
322 322 323 324 324 324 324 323 324 326 326 326 326 325 325 325 326 326 326 326 327 328 329 329 329 330 330 329 330 330 328 327 326 327 327 327 327 327 326 326 327 328 328 328 327 326 327 327 327 327 327 327 328 327 326 325 324 324 323 323 323 316 308 305 306 305 306 305 304 303 303 302 303 302 302 302 302 302 302 302 303 304 306 310 312
322 322 323 323 323 323 323 324 326 326 326 327 327 327 327 326 326 327 327 327 328 328 328 329 329 329 329 329 330 329 328 328 327 328 328 327 327 327 327 327 327 327 328 328 327 328 327 327 327 328 327 327 328 327 326 325 324 324 323 322 322 319 311 305 306 305 305 305 304 303 303 303 303 303 302 302 302 302 302 302 303 304 307 311 313
322 322 322 323 323 322 323 324 326 325 325 326 327 327 327 326 326 327 327 328 328 327 327 328 329 329 329 329 329 329 329 329 328 328 327 327 328 327 327 327 327 327 328 328 328 328 328 327 327 327 328 327 327 327 326 325 324 323 323 321 320 320 313 306 305 306 305 305 303 303 303 303 303 303 302 302 302 302 302 302 302 303 307 310 313
321 321 321 322 322 320 321 323 325 325 325 326 327 327 327 326 326 327 327 327 328 328 328 329 329 329 329 329 329 328 329 329 328 327 327 327 328 327 326 327 328 328 328 328 328 328 328 326 326 327 327 327 327 327 325 324 324 323 323 321 318 317 312 307 305 305 305 305 303 303 303 303 304 304 303 302 302 302 302 302 302 303 306 310 313
319 320 320 321 321 319 320 322 324 325 325 326 327 327 327 327 327 327 327 327 327 328 328 328 328 328 328 328 328 328 328 328 328 327 327 327 327 327 327 328 328 327 328 328 328 327 327 326 326 327 327 327 326 325 324 324 323 323 323 321 318 313 309 308 307 306 305 305 304 303 303 303 304 304 304 303 302 302 302 302 302 302 304 309 312
315 317 318 320 320 320 320 321 323 323 324 324 325 325 325 326 326 327 327 327 327 327 327 328 328 328 328 328 327 327 328 328 328 328 328 327 327 327 328 328 327 327 327 326 326 327 327 326 327 327 327 327 326 325 324 324 323 323 322 322 320 314 308 308 311 309 307 305 304 304 303 302 304 305 304 304 303 303 302 302 302 302 303 308 312
312 313 315 316 318 318 319 320 321 322 322 322 321 321 322 323 324 326 327 327 327 327 327 327 327 327 327 327 327 327 326 327 327 328 329 328 328 327 327 328 327 326 325 325 326 327 327 327 327 327 327 326 325 325 324 323 322 322 322 321 319 315 310 309 312 312 310 307 304 304 303 302 303 305 305 305 304 303 303 303 302 302 304 307 311
309 310 311 312 313 315 316 318 319 320 320 320 320 319 319 320 322 324 326 327 327 327 327 326 326 326 325 326 327 327 327 326 327 327 329 329 328 326 327 329 328 327 326 326 328 328 328 328 327 326 326 326 325 325 324 323 322 322 322 320 318 315 312 310 311 313 312 310 306 304 303 302 303 305 306 305 304 304 303 303 303 303 305 308 311
307 307 307 308 309 311 313 314 315 316 318 320 320 319 319 319 320 323 325 326 327 327 327 326 325 325 325 325 326 327 327 327 327 328 328 330 329 327 327 328 328 327 328 328 329 329 328 328 327 326 326 325 325 324 323 322 321 321 321 319 317 316 313 311 313 313 312 310 307 304 302 302 303 304 305 305 305 305 304 304 303 304 306 309 311
306 306 306 307 307 308 310 311 312 313 315 316 316 316 318 318 319 321 324 325 326 327 327 326 326 325 324 325 325 325 326 327 327 328 328 328 329 328 326 327 328 328 328 328 328 328 328 328 327 327 326 325 325 324 323 322 321 320 319 318 318 316 314 314 315 314 311 309 308 305 303 302 302 304 305 306 306 306 305 305 305 305 306 309 311
304 305 305 306 307 307 307 308 309 310 312 312 312 313 315 317 319 320 322 324 326 326 327 326 326 325 324 323 324 324 324 325 325 327 327 327 328 327 326 327 328 328 328 328 328 328 328 328 328 327 326 325 325 324 323 321 320 320 318 318 317 316 315 316 316 314 311 310 310 309 307 305 303 303 304 305 306 306 306 306 306 306 307 308 310
302 303 303 304 304 305 306 306 307 307 308 308 309 311 313 316 318 319 321 323 324 325 325 325 325 325 325 324 324 323 323 323 324 325 326 327 326 326 326 326 327 328 328 328 328 327 327 327 327 327 326 325 325 324 323 322 321 320 319 319 318 316 315 317 317 315 313 311 311 312 312 311 308 306 305 305 305 305 306 306 307 307 307 307 308
301 301 301 301 301 302 304 304 305 305 306 306 307 309 312 314 316 318 319 321 322 323 324 324 324 325 325 323 323 323 322 323 323 324 325 326 326 325 326 326 325 327 328 327 327 327 327 327 327 327 327 326 325 324 324 322 321 321 320 319 319 315 313 314 315 315 314 311 310 311 311 312 311 309 307 306 305 305 306 306 306 306 306 307 307
300 300 300 300 299 300 301 302 303 304 304 305 306 307 309 311 313 315 317 318 320 321 322 323 324 324 324 323 321 321 321 322 322 323 323 324 324 325 325 325 325 326 327 327 327 327 326 326 326 326 326 326 324 324 324 323 322 322 321 320 318 314 312 312 313 313 313 312 311 311 311 311 311 310 308 308 307 307 306 306 306 306 306 306 306
300 299 299 299 299 299 299 300 301 302 303 304 305 306 307 309 310 313 314 316 318 320 320 321 322 323 324 324 322 320 320 321 322 322 322 322 323 325 326 325 324 325 327 327 327 327 326 326 326 325 325 325 324 324 324 323 322 321 320 320 318 315 314 313 313 312 313 312 312 311 311 311 311 310 310 310 309 309 308 308 307 306 305 305 305
299 298 298 298 298 299 299 299 299 300 301 302 303 304 306 307 308 310 312 314 316 318 319 319 320 322 324 324 323 321 320 321 321 322 323 322 323 325 326 326 325 325 326 327 327 326 326 326 325 325 325 325 324 323 323 323 322 322 320 319 319 318 316 314 313 313 313 312 312 312 312 312 312 312 312 311 311 311 311 309 308 307 306 305 305
298 298 298 298 298 298 298 298 299 299 299 300 301 302 304 305 307 308 310 311 313 315 317 318 319 320 322 323 324 322 321 321 321 322 323 323 324 325 325 325 326 326 326 326 326 326 325 325 325 325 325 325 324 323 322 321 321 320 320 319 319 318 315 313 313 313 313 313 312 312 312 313 313 312 312 312 312 312 311 310 310 309 309 308 306
298 298 299 299 298 298 298 298 298 299 299 299 300 301 302 303 304 306 307 308 310 312 314 315 316 318 319 321 322 323 322 322 322 322 324 325 325 324 324 324 325 326 325 324 324 325 325 325 326 325 324 325 324 323 322 321 320 319 319 318 318 316 315 314 314 313 313 313 312 312 313 313 313 313 313 313 313 312 312 311 311 311 310 310 310
296 297 298 299 298 299 298 297 297 298 298 299 299 300 300 301 302 303 304 306 307 308 310 311 313 314 315 316 319 321 322 322 322 323 324 325 325 324 324 324 325 325 325 324 323 324 325 326 326 325 324 324 324 323 322 322 321 320 319 318 317 317 316 315 315 315 315 315 314 313 313 313 313 314 313 313 313 312 312 312 312 312 312 312 312
295 296 298 299 298 298 297 296 297 298 298 298 298 299 299 300 301 301 302 303 304 305 307 308 310 311 312 313 315 318 319 321 322 322 324 325 325 324 324 324 324 324 325 325 325 325 325 326 326 325 325 324 324 324 323 323 322 320 319 319 317 317 316 316 316 316 317 317 316 315 314 313 314 314 314 313 313 313 313 313 313 314 313 312 310
Wind_Speed
10 10 10 11 11 11 12 12 11 11 9 10 11 12 12 8 7 9 11 10 8 7 7 9 10 10 9 8 5 7 11 12 12 11 11 8 6 6 7 8 9 9 9 8 7 6 4 2 2 2 2 3 3 4 5 6 6 6 7 7 7 8 9 9 8 8 9 9 9 9 10 11 11 11 11 12 14 15 16 16 16 16 16 18 19
11 11 11 11 11 11 12 13 12 13 11 10 10 12 11 9 9 10 11 12 12 10 11 13 13 12 12 10 10 11 11 12 11 12 13 11 9 8 8 9 9 9 8 7 7 6 4 3 3 3 3 3 3 4 5 5 6 6 7 7 7 8 8 8 8 8 8 8 9 9 10 10 10 10 11 13 14 15 15 15 15 16 17 17 18
10 11 11 11 11 11 12 13 13 14 13 12 12 13 13 11 12 13 14 15 15 14 14 15 14 13 14 12 14 15 11 12 12 13 15 13 12 11 9 9 9 9 7 6 6 5 4 3 3 3 3 3 3 3 4 5 6 7 7 6 7 8 8 8 8 7 7 7 8 8 9 9 9 10 11 13 13 14 14 14 15 15 16 16 17
10 11 11 11 11 11 12 13 14 14 14 13 14 15 16 15 15 17 18 16 16 16 18 18 16 15 15 13 15 17 15 15 14 14 15 14 14 12 11 9 8 8 7 5 5 5 4 3 3 3 3 3 3 4 4 5 6 7 7 6 6 7 8 7 7 7 6 6 6 6 7 8 8 10 11 12 13 13 13 14 14 14 14 15 15
10 10 11 11 11 12 13 13 13 15 16 15 16 17 18 17 17 19 20 19 18 18 19 20 20 18 15 14 16 19 18 17 17 16 15 14 15 13 12 10 7 7 6 5 5 5 4 3 3 3 3 3 3 3 4 5 5 6 6 5 5 7 8 7 6 6 6 5 5 5 5 7 8 10 11 12 12 12 13 14 14 14 14 14 14
10 10 11 11 11 12 12 13 13 15 17 17 17 17 19 19 18 18 20 21 20 19 19 20 22 21 17 15 17 19 18 17 16 16 14 14 15 14 14 11 7 6 5 5 5 5 5 4 3 3 3 3 2 3 4 5 5 5 5 5 5 6 7 7 6 5 5 5 5 4 4 6 8 10 12 12 12 12 14 14 14 14 13 14 14
10 10 11 12 12 12 12 13 14 15 17 18 18 18 19 19 19 19 20 21 21 19 19 20 23 23 20 17 16 17 18 16 15 16 15 14 14 15 14 13 9 7 5 5 5 6 6 4 4 5 4 4 3 3 4 5 5 5 5 5 6 6 6 6 6 5 5 5 5 4 5 6 8 11 13 12 12 13 14 14 14 13 13 14 14
9 10 11 12 12 12 12 13 14 16 17 18 19 19 19 20 19 20 21 21 21 20 20 20 21 21 20 19 18 19 20 19 17 17 16 15 13 14 15 14 11 9 6 6 6 6 6 5 5 6 6 5 4 4 5 5 5 5 5 6 6 6 6 5 5 6 6 5 5 5 6 7 10 12 11 11 13 14 14 14 13 13 13 14 14
9 10 11 12 12 13 13 14 15 16 17 18 19 19 20 20 20 20 21 21 21 21 22 22 21 20 20 22 22 21 22 22 19 18 19 19 15 14 16 16 13 11 8 7 7 7 6 6 6 7 7 6 5 5 6 6 6 5 6 6 7 6 5 5 5 6 6 6 6 6 6 8 11 13 11 11 14 13 13 13 11 12 13 13 13
10 11 11 12 13 13 14 15 16 16 17 18 19 20 20 21 21 21 21 21 21 22 22 23 24 22 22 24 24 22 23 23 22 20 20 20 18 17 17 17 16 13 9 8 9 8 7 7 7 8 8 7 6 7 8 8 7 6 6 7 7 6 6 5 5 6 6 6 7 7 7 8 11 14 12 11 12 12 12 12 10 10 11 11 10
10 11 13 13 14 15 15 15 16 17 18 19 20 21 21 22 22 22 21 21 22 23 23 23 25 24 23 25 26 24 24 24 23 21 21 20 20 20 18 17 17 14 11 10 10 9 8 8 8 9 9 8 8 8 9 10 10 8 7 7 7 7 6 6 6 6 6 7 7 7 8 9 12 14 11 10 10 11 12 11 10 10 9 9 9
11 12 14 14 14 15 15 16 17 18 18 19 20 21 21 23 23 23 23 23 23 23 24 23 25 26 26 26 27 27 27 26 24 22 22 21 21 21 18 17 17 15 14 12 11 10 9 8 8 9 9 9 9 10 10 11 11 11 9 8 8 7 7 6 7 6 6 6 6 8 8 9 12 13 10 9 10 11 11 10 9 9 8 8 8
13 14 15 16 15 14 15 17 18 19 19 19 19 20 21 22 22 23 24 25 25 24 24 24 26 26 27 27 28 28 28 27 25 24 23 22 23 23 19 18 19 16 14 13 12 11 10 9 9 9 10 10 10 11 11 12 12 13 12 10 9 8 7 7 7 6 6 6 5 7 8 9 12 13 10 9 9 10 10 9 9 8 8 8 8
15 15 16 17 17 16 16 17 18 20 20 19 18 19 21 21 22 24 24 26 27 26 26 27 28 28 27 28 28 29 29 27 25 25 25 23 23 24 19 18 19 17 15 14 14 13 11 10 10 10 10 11 11 11 12 13 13 14 13 12 11 9 8 8 9 8 7 6 4 5 7 9 12 13 11 9 8 9 10 9 9 9 8 8 8
15 15 17 18 18 18 18 18 18 19 20 20 19 20 21 21 23 24 24 26 27 28 29 29 31 30 27 28 28 28 29 28 27 27 26 25 23 21 20 20 20 18 17 16 16 15 13 12 12 12 12 11 12 12 12 12 12 14 14 14 13 11 10 9 10 11 10 8 5 5 6 8 12 13 11 9 8 9 9 9 9 8 8 8 8
13 14 16 16 18 19 20 21 20 20 20 20 20 20 21 22 23 24 24 25 27 29 30 30 32 31 28 27 26 24 25 28 29 28 27 26 24 22 22 22 22 20 20 19 18 17 15 14 15 15 14 12 12 12 12 12 12 14 15 16 14 13 12 11 11 12 12 10 8 7 6 8 11 12 11 10 9 9 9 9 8 8 8 8 9
12 13 14 14 16 18 19 20 19 19 19 19 20 20 21 22 23 24 24 25 27 28 30 31 33 33 32 29 23 21 24 26 26 26 27 27 26 25 24 23 24 24 23 21 20 18 17 17 18 17 15 14 13 13 12 13 13 14 15 16 15 15 15 14 12 12 13 11 10 9 7 8 11 12 11 11 10 9 9 8 8 8 9 10 11
10 11 12 14 15 17 18 18 18 20 19 19 20 21 21 22 22 24 25 26 27 29 31 32 33 34 36 34 28 24 24 23 22 20 23 28 28 27 25 24 24 25 25 23 21 20 19 18 19 19 17 15 14 14 13 13 14 14 14 14 15 17 16 15 14 14 13 12 12 11 10 10 12 12 12 11 11 10 10 9 8 9 10 12 13
12 11 12 14 16 17 18 18 20 21 20 20 22 22 22 22 22 24 25 26 27 29 31 31 32 34 35 35 36 33 26 21 21 19 19 24 27 26 26 25 25 26 27 25 22 21 20 19 20 20 19 17 15 15 15 14 14 14 14 13 14 16 17 16 15 15 15 14 14 13 11 12 13 13 12 12 12 11 10 10 10 11 12 14 16
13 13 13 16 17 18 19 19 20 21 20 21 22 22 22 23 24 24 26 28 28 29 29 29 31 34 34 34 36 37 31 22 21 22 19 20 23 24 24 23 24 26 27 26 23 21 21 20 21 20 19 18 17 16 15 15 15 15 14 14 14 15 17 17 17 16 16 16 16 14 13 14 14 13 12 12 12 12 11 11 11 13 15 16 17
13 14 15 17 18 19 20 19 19 20 21 22 23 22 23 25 25 25 27 28 28 28 28 28 30 32 34 35 34 35 35 28 23 22 20 18 19 21 21 20 22 24 26 26 24 22 22 21 21 21 19 18 19 17 16 16 16 16 15 14 14 15 17 18 18 17 16 17 17 15 14 16 15 14 13 12 12 12 12 12 13 15 17 18 18
12 13 14 16 17 18 20 20 20 21 22 23 23 24 26 27 27 27 27 26 26 27 28 28 28 29 31 34 34 33 33 31 27 24 22 20 19 18 18 19 21 23 26 27 26 24 23 22 21 21 19 19 19 17 16 17 16 15 16 16 15 15 16 18 19 18 18 19 18 15 15 17 17 15 13 13 13 13 13 14 15 17 18 18 18
12 13 13 14 15 16 18 21 21 21 22 24 25 26 28 27 27 28 27 25 24 24 25 27 27 27 29 32 33 31 30 30 30 29 27 25 24 22 20 19 19 20 23 26 26 24 23 22 21 21 19 19 19 17 18 18 15 13 15 17 17 16 17 18 19 20 21 21 19 16 16 17 17 15 13 14 14 14 14 16 17 18 18 18 17
12 13 14 14 15 16 17 19 22 23 25 26 27 28 29 28 27 28 28 26 25 23 23 26 27 27 28 31 31 30 29 28 29 31 30 30 29 25 22 19 18 18 20 23 25 25 24 24 22 22 20 18 18 18 19 18 15 12 14 19 18 16 17 18 20 21 21 20 19 17 17 17 16 15 15 16 15 15 16 18 19 19 19 18 17
12 12 14 16 16 17 18 19 21 22 23 25 26 28 30 30 28 29 29 29 27 25 24 25 27 27 27 29 30 29 28 27 28 29 30 32 31 27 23 22 20 19 19 21 24 25 25 25 24 23 22 19 19 21 20 18 15 12 14 19 19 16 17 18 19 21 20 20 19 18 18 17 16 16 17 17 16 17 18 19 20 20 19 18 17
11 12 13 16 17 18 19 21 21 22 22 23 24 26 29 30 30 30 30 30 29 27 26 26 27 26 25 28 29 29 28 27 28 29 29 30 31 28 25 24 22 21 20 21 24 26 27 27 26 25 24 22 21 23 23 20 18 15 13 17 18 17 18 19 20 21 20 20 19 19 18 16 16 17 18 18 18 18 19 20 20 20 19 18 17
12 12 13 15 16 17 19 20 21 22 23 23 24 26 28 30 31 32 31 30 30 29 27 26 26 26 26 26 27 28 28 26 28 29 29 29 30 28 26 26 25 22 21 22 24 27 28 28 28 27 27 25 24 25 24 23 22 18 14 14 17 18 19 20 21 21 20 20 20 19 18 16 17 18 19 18 19 19 20 20 20 19 18 18 17
14 14 15 15 16 17 18 20 21 22 24 25 25 26 28 30 31 33 32 30 29 29 28 26 25 25 25 25 26 27 26 25 26 28 29 29 30 29 28 29 28 25 22 23 24 26 27 28 29 29 28 27 26 27 27 25 23 21 17 14 15 18 20 21 21 20 20 21 21 20 18 17 18 19 19 19 19 20 20 20 20 19 18 17 17
15 16 17 17 17 17 19 21 23 24 25 26 27 28 29 30 30 31 31 29 27 28 29 26 23 23 22 23 26 25 23 23 25 26 27 27 29 30 29 29 29 28 25 25 27 27 27 29 30 31 30 29 29 30 29 27 23 22 20 15 15 18 20 20 21 20 20 21 22 20 19 18 19 19 20 20 20 20 21 21 20 19 18 17 17
13 14 15 15 15 16 19 22 23 25 27 28 29 29 29 29 28 28 27 26 26 28 28 26 23 22 22 22 25 24 23 24 25 26 26 26 27 29 29 28 28 29 28 27 28 28 28 30 30 31 31 31 31 31 30 28 24 22 21 17 15 18 20 20 20 20 21 22 22 20 19 19 20 20 20 21 21 21 21 21 21 20 19 18 18
11 11 11 12 13 15 18 21 24 26 28 28 27 26 26 26 24 24 24 24 25 27 28 25 22 23 22 21 24 25 24 25 26 27 28 28 29 29 29 28 28 28 28 28 28 27 28 29 30 30 30 31 33 32 30 28 24 22 23 20 16 17 19 20 20 21 21 22 22 21 20 21 20 20 21 21 22 22 22 22 22 21 20 20 19
12 12 12 12 15 18 20 22 24 23 23 22 22 21 22 22 21 21 22 23 24 25 26 24 23 23 22 21 24 26 26 27 28 29 29 30 30 30 29 29 28 27 28 29 28 26 25 26 28 29 29 31 33 32 30 28 25 24 24 22 18 18 19 21 21 22 22 22 23 21 21 22 21 21 21 22 23 22 22 23 22 22 21 21 20
14 14 14 15 17 18 20 22 21 19 19 19 18 18 18 19 19 20 21 21 22 21 22 23 23 22 22 21 24 26 26 27 27 29 30 30 30 29 29 28 28 28 29 30 29 26 24 24 26 27 28 31 33 33 32 29 26 25 24 22 21 20 21 22 22 22 23 23 23 22 22 22 22 22 22 22 22 22 23 23 23 23 22 22 22
15 15 16 17 18 17 18 19 18 17 17 17 16 16 17 18 18 18 19 21 19 16 18 20 19 20 21 21 23 25 26 26 26 28 29 29 29 28 27 28 29 29 29 31 30 28 26 24 25 27 27 31 34 34 34 31 27 26 25 23 22 21 22 22 23 23 23 23 23 23 22 23 23 22 22 22 22 23 23 23 23 23 23 23 23
16 15 15 16 18 18 17 17 17 16 17 17 17 17 16 17 17 17 17 18 14 11 13 15 16 17 19 20 21 22 24 26 26 27 28 28 28 28 27 28 29 28 30 31 30 28 27 25 25 27 28 31 34 34 34 31 27 26 25 22 21 22 23 23 23 23 23 24 24 23 23 23 23 22 22 22 22 23 23 23 24 24 24 24 23
17 16 15 15 17 18 18 18 17 17 16 16 16 16 16 16 17 16 16 15 13 11 10 11 14 15 15 16 18 20 23 26 27 27 28 29 29 28 28 29 29 29 29 30 29 28 28 27 27 28 29 32 33 34 33 30 27 27 26 22 21 22 24 24 23 23 23 24 24 24 23 24 23 23 22 22 22 23 23 23 24 24 24 24 24
20 19 17 16 15 17 17 18 19 18 16 15 14 15 15 15 15 15 14 13 11 10 10 11 13 13 12 13 15 18 21 24 27 27 26 27 28 28 28 29 29 29 28 29 29 30 30 30 29 28 30 32 34 35 33 30 29 29 28 25 23 23 24 24 22 22 23 23 24 25 24 24 24 23 22 22 22 22 23 23 24 24 24 24 23
23 22 20 19 18 17 16 16 18 19 18 15 14 15 15 14 14 14 13 11 10 9 9 11 12 12 11 11 13 16 18 21 24 25 24 25 26 27 29 30 29 28 29 30 31 32 32 31 29 29 31 33 34 36 34 31 32 32 30 27 24 23 24 24 22 22 23 24 25 25 25 25 25 24 22 22 22 22 23 23 23 23 23 23 23
25 25 23 22 21 20 19 17 17 19 19 18 17 17 15 15 14 13 13 12 12 11 9 11 11 10 10 11 13 15 17 19 20 20 21 22 23 25 27 29 29 29 30 30 31 32 32 32 30 30 32 33 35 36 35 32 31 31 31 29 27 26 25 24 23 23 23 24 26 26 26 26 25 24 23 22 22 22 22 22 22 23 23 23 23
26 26 25 24 23 22 21 20 19 20 20 21 21 20 18 16 15 14 14 13 13 11 9 9 10 9 9 10 12 14 16 17 18 17 18 20 22 24 26 27 27 28 29 30 30 31 32 33 32 31 32 33 35 36 35 32 32 33 33 31 29 28 28 25 22 22 25 26 27 27 27 27 27 26 24 24 23 23 22 22 22 22 23 23 23
25 26 25 24 24 24 23 22 22 21 21 22 23 23 21 20 18 17 15 13 12 12 10 9 8 8 9 10 11 13 15 16 17 17 16 18 21 23 26 28 29 27 27 28 30 32 33 33 32 31 32 35 37 38 37 36 35 37 36 32 30 28 28 26 22 20 23 25 26 27 28 28 28 27 27 26 26 24 24 23 23 23 24 24 23
25 26 26 25 24 25 26 25 24 24 24 24 25 24 23 22 22 20 17 14 13 12 11 11 10 9 9 10 10 12 15 15 16 16 15 17 21 23 26 29 30 28 27 27 29 32 34 34 33 33 33 36 39 39 39 38 37 37 36 34 33 30 28 27 24 21 21 23 25 25 26 26 27 28 28 28 27 26 26 25 25 24 24 24 24
27 26 28 28 27 27 27 27 27 27 27 27 26 24 23 23 22 22 20 17 14 13 12 12 13 11 9 10 12 12 14 16 16 16 16 17 20 22 24 27 27 27 28 28 29 31 33 34 35 35 34 36 37 39 40 39 37 35 34 34 34 34 32 30 28 27 25 25 25 25 24 24 25 26 28 28 27 27 26 25 24 24 24 24 24
32 28 29 31 32 31 30 29 28 28 28 28 28 26 24 23 22 21 20 18 16 14 13 14 15 13 10 12 13 14 14 15 16 15 14 15 16 19 21 23 25 27 28 28 28 29 31 34 36 37 36 35 35 38 41 40 38 34 31 33 36 36 35 32 31 31 29 27 27 27 25 24 24 25 26 26 26 26 25 23 23 24 25 24 23
37 34 32 32 34 36 35 33 31 30 29 29 29 28 26 24 22 21 19 18 16 14 13 12 12 12 12 13 14 14 14 14 15 14 13 12 14 17 18 20 23 26 27 25 24 24 27 31 35 36 35 34 35 38 40 40 39 36 31 33 37 37 35 34 32 31 30 29 29 28 27 25 24 24 24 24 24 25 24 23 24 25 25 24 24
38 37 35 34 36 38 38 37 36 34 32 31 30 29 27 26 24 21 18 16 14 13 12 10 9 9 11 13 14 14 14 13 13 13 12 11 12 15 18 20 22 23 24 24 23 23 24 27 31 33 33 33 33 36 37 37 39 39 35 34 38 37 34 31 29 28 29 31 29 28 28 27 25 24 23 22 23 23 23 24 25 25 25 25 25
37 36 34 35 37 38 38 39 39 38 37 35 32 31 29 28 26 23 19 15 11 10 10 9 8 8 10 11 13 14 14 13 12 12 11 12 12 13 16 19 20 20 22 24 24 24 24 26 30 31 32 33 34 35 35 34 37 39 34 32 35 36 31 30 30 29 31 32 30 29 29 28 27 26 24 22 23 23 23 23 24 25 26 26 25
34 34 33 34 36 38 39 40 40 40 39 39 37 34 32 30 28 25 23 19 13 10 9 8 8 9 10 12 13 14 13 13 13 13 13 12 14 14 14 17 19 20 22 23 24 26 26 26 28 30 31 33 34 34 32 32 35 36 30 29 34 35 33 35 35 32 33 35 34 33 32 30 29 29 27 25 25 25 24 23 23 23 24 25 25
31 31 32 33 35 36 37 39 40 40 39 39 39 38 36 33 31 29 27 24 19 14 10 8 7 8 9 11 13 14 14 13 14 14 14 14 16 16 16 18 19 20 21 22 24 26 27 26 26 28 31 33 34 33 30 29 33 33 30 32 37 36 35 37 36 34 35 36 37 38 37 33 31 31 30 28 26 25 25 24 23 22 22 23 24
29 28 29 32 34 33 34 37 38 39 39 39 39 39 39 37 34 32 30 28 25 22 17 12 10 9 9 9 10 13 14 14 14 14 14 16 18 19 19 19 20 20 20 23 26 27 27 28 28 30 33 34 33 33 32 30 31 31 31 34 36 34 33 35 35 34 34 33 36 40 39 34 31 31 31 28 24 23 25 26 25 25 25 23 21
30 27 26 28 32 32 33 35 35 36 37 38 39 39 39 38 36 34 33 31 30 28 25 20 16 13 11 10 9 10 11 13 14 14 15 15 17 18 18 20 21 21 21 24 27 29 31 32 31 32 34 33 33 34 33 32 32 31 30 33 36 37 36 34 33 33 32 31 33 37 38 35 33 32 32 31 28 25 24 24 23 23 22 20 16
Wind_Direction
260 257 260 269 272 262 255 253 252 253 247 235 224 212 202 199 214 215 205 197 195 219 227 225 234 226 229 242 218 227 253 260 262 265 270 282 293 286 282 284 282 281 285 285 278 270 257 220 192 157 122 99 88 85 90 97 97 97 98 103 112 120 124 123 118 110 103 97 90 86 85 86 88 89 92 93 92 92 91 90 91 90 89 89 89
259 256 260 265 266 260 255 251 250 252 248 244 242 232 219 205 213 220 211 203 204 224 234 228 231 223 216 232 230 228 247 250 246 255 267 276 278 281 290 294 286 276 277 276 269 260 237 213 183 158 130 105 92 90 97 100 101 102 102 108 117 123 127 126 119 111 104 97 90 88 89 92 92 92 95 99 99 95 93 93 94 93 92 92 92
262 260 260 259 257 257 254 248 248 250 248 242 238 238 237 226 222 228 227 220 218 226 232 225 224 224 217 223 227 224 232 240 240 247 261 273 277 281 288 298 290 269 263 264 259 245 221 203 183 157 128 114 104 101 100 100 103 106 109 113 120 126 129 128 122 114 106 98 93 94 98 100 99 99 101 104 104 100 98 98 98 95 94 93 93
259 259 260 262 257 254 252 247 247 249 251 246 240 240 241 237 230 235 241 239 233 231 233 226 220 220 218 222 233 230 227 236 244 244 251 266 273 277 282 293 291 262 250 253 248 233 217 195 174 153 131 124 115 109 106 107 111 113 120 126 127 129 130 125 119 113 105 101 100 103 105 105 103 103 105 108 108 105 102 100 100 99 96 94 92
256 258 262 266 262 258 257 252 247 246 249 249 249 249 249 248 238 237 247 249 244 236 234 230 223 218 212 220 238 240 236 239 242 239 243 255 263 272 277 284 286 262 247 246 241 222 206 192 172 156 144 137 124 117 117 118 121 123 128 134 134 133 129 124 116 106 101 100 101 104 109 109 105 105 109 112 110 107 106 103 100 100 98 97 95
254 258 262 265 264 261 259 254 248 243 246 247 248 252 254 257 251 247 251 253 252 241 232 228 223 218 211 218 240 245 245 244 237 233 240 246 253 265 271 274 275 264 251 244 239 216 201 199 192 186 178 173 158 130 126 129 129 131 133 137 139 136 132 126 117 105 99 98 95 98 113 114 108 110 113 112 109 110 110 106 101 101 100 99 99
257 260 261 263 264 263 258 253 250 246 245 245 245 248 252 256 257 256 255 253 252 245 234 228 225 224 218 219 235 241 243 245 235 231 239 241 247 260 267 268 267 262 252 246 240 220 216 219 214 212 209 204 186 151 140 143 143 143 142 142 141 139 138 131 120 109 105 101 93 96 116 121 116 114 111 107 108 111 111 107 105 106 106 105 103
259 262 261 263 264 263 258 253 252 250 248 248 249 249 250 253 252 253 253 249 248 246 240 234 231 232 227 221 227 235 236 236 230 227 232 234 241 254 262 264 262 259 252 247 242 227 230 236 231 222 216 216 207 181 169 157 155 158 151 147 145 146 143 134 123 113 110 107 98 100 114 126 124 115 107 107 109 109 110 108 110 116 117 114 110
263 264 264 264 266 265 259 254 253 252 252 253 255 254 251 251 251 252 251 246 243 242 241 237 233 234 232 226 228 234 234 231 227 223 224 230 236 243 254 258 256 255 251 245 241 235 237 241 239 229 216 215 211 198 189 174 166 165 159 155 151 149 145 137 130 119 117 115 108 110 118 129 126 115 108 109 109 108 109 108 114 127 127 122 117
265 267 267 265 267 267 261 257 257 256 256 257 258 257 253 253 255 257 255 249 244 242 241 238 236 237 234 229 230 236 236 231 229 226 225 232 239 242 244 249 253 251 247 245 243 244 243 240 241 233 220 213 206 200 200 193 182 174 168 163 156 153 150 146 139 129 127 123 117 116 120 129 123 115 115 115 114 118 120 119 125 134 132 127 124
271 270 269 269 268 269 266 261 260 260 260 259 258 256 254 256 259 258 256 253 250 247 245 242 238 238 237 231 230 235 236 232 229 230 231 232 238 243 234 235 247 245 239 243 242 246 245 239 241 235 223 216 207 202 205 204 195 187 179 171 165 160 157 156 148 138 133 130 127 120 119 126 122 118 123 127 129 136 136 134 136 135 132 130 127
274 275 275 275 272 268 265 262 262 262 261 261 260 258 257 259 260 259 257 255 253 250 249 246 241 238 239 235 232 234 235 234 231 230 234 232 236 245 234 227 239 238 238 246 242 239 239 239 241 232 222 218 215 210 207 208 203 198 191 182 177 170 168 165 154 142 133 131 130 124 120 124 125 125 132 137 140 146 146 143 138 132 131 130 127
276 276 276 276 275 270 263 261 262 263 265 264 262 261 260 260 261 260 259 257 255 254 253 251 244 238 238 238 237 239 238 236 234 233 236 235 237 242 230 223 235 236 240 249 247 237 228 235 237 225 218 218 220 216 208 207 205 202 199 194 189 181 180 175 163 154 142 138 134 129 124 122 128 133 139 143 144 148 148 145 139 133 132 132 132
282 280 276 274 274 272 267 262 260 263 267 267 264 264 264 263 262 259 259 258 256 255 255 252 247 242 240 241 240 243 243 239 237 237 236 233 235 237 226 224 234 238 241 245 247 239 224 227 230 221 217 216 218 218 214 210 203 202 204 203 198 193 189 184 179 174 162 156 153 138 129 126 134 139 145 150 149 150 150 147 142 136 135 138 137
280 280 279 280 279 276 274 270 265 264 266 268 268 269 270 269 266 263 261 259 257 255 254 252 251 247 241 241 241 241 243 241 236 235 234 230 230 233 230 232 236 238 240 242 246 241 226 222 225 220 212 210 213 215 216 212 205 204 206 206 205 201 196 191 190 185 175 170 173 161 141 137 143 147 154 162 159 154 152 149 145 139 138 142 139
270 274 279 287 290 287 284 279 275 273 271 273 276 277 278 275 270 268 265 261 258 256 253 251 251 248 239 236 239 240 240 239 236 234 232 228 227 228 230 233 235 237 239 241 246 243 229 220 223 220 210 205 208 212 211 205 205 206 206 207 205 203 200 197 198 193 183 176 182 184 162 150 153 157 167 173 168 163 158 154 149 144 142 143 137
257 263 270 276 284 290 291 286 282 277 275 278 282 283 282 278 275 272 268 263 260 259 256 251 250 250 243 235 232 234 237 239 239 237 233 227 225 226 229 232 234 236 237 239 242 238 228 221 223 221 213 206 203 207 209 202 202 203 203 205 202 200 202 202 202 199 193 181 183 193 181 165 163 168 179 180 175 173 167 161 155 149 144 140 135
271 269 271 271 274 282 288 290 287 282 282 285 284 282 279 277 277 272 267 263 261 258 257 254 252 251 248 242 237 237 241 240 234 232 230 228 227 228 230 234 235 235 235 236 236 234 230 226 225 222 216 210 203 206 210 207 206 202 201 203 199 198 201 204 203 201 197 184 184 196 189 177 175 179 186 183 178 178 173 168 160 153 144 138 134
298 292 284 279 277 278 280 283 285 285 289 290 284 279 277 277 276 273 271 266 260 256 256 256 255 253 250 246 243 243 242 234 224 221 221 224 227 228 231 234 233 233 232 232 231 231 232 231 227 222 219 215 207 207 211 213 209 203 202 203 201 201 202 204 203 202 199 185 186 198 190 182 184 188 190 182 177 176 175 171 162 154 146 139 136
298 296 289 286 285 284 281 280 281 283 286 285 281 279 277 277 276 275 274 267 261 258 257 256 256 257 254 247 243 244 240 231 222 218 215 219 224 225 226 229 231 231 230 230 229 229 231 230 225 220 220 217 210 208 210 213 210 203 203 203 202 204 202 202 201 203 201 186 185 196 190 183 188 194 192 182 176 175 176 171 162 155 148 143 140
294 293 292 292 291 291 290 289 286 286 286 282 282 282 279 277 276 275 275 271 267 265 262 259 257 258 257 250 245 243 240 235 226 219 218 223 221 219 221 222 226 228 228 228 229 228 228 227 222 218 219 215 208 207 209 211 210 206 205 202 202 204 201 201 201 201 197 187 187 196 192 184 189 197 193 183 177 175 175 170 161 157 152 147 143
298 295 294 293 292 293 293 293 291 289 287 284 283 282 280 281 281 280 278 276 273 267 262 261 258 256 257 255 249 244 241 237 230 223 227 229 221 223 230 229 228 228 226 226 227 226 225 225 221 214 213 210 204 204 208 209 211 211 209 205 204 205 201 200 200 197 194 192 193 197 193 185 189 198 192 183 178 174 173 169 162 158 155 150 146
309 309 308 303 299 297 294 293 294 294 293 292 292 290 286 285 286 284 280 277 275 271 264 262 261 259 257 256 254 249 246 243 237 231 232 231 225 230 240 239 236 235 230 227 225 225 222 220 218 214 211 209 205 205 209 211 211 213 214 210 207 206 204 201 199 197 196 197 197 197 193 189 193 199 192 184 179 173 172 168 163 160 157 154 148
316 319 317 311 305 301 298 296 296 296 295 295 296 296 294 289 285 283 280 276 274 274 270 265 264 264 259 256 254 250 247 248 246 240 239 236 230 233 240 239 234 233 231 228 226 224 218 214 215 215 212 207 205 209 214 214 212 215 219 214 209 207 204 201 200 199 197 199 200 198 195 195 199 198 190 185 178 173 172 168 165 163 160 157 152
314 317 316 313 309 304 302 301 300 299 297 296 297 296 294 291 286 282 280 276 274 271 268 265 264 264 261 256 252 248 245 245 246 244 242 238 233 235 241 239 233 230 227 225 224 221 215 213 214 212 207 202 203 211 215 214 213 221 223 215 210 206 203 201 200 198 196 199 203 199 196 198 199 194 187 183 177 173 173 170 167 167 164 160 155
306 308 312 313 310 306 305 306 307 307 305 302 301 299 297 294 291 285 279 275 273 270 266 265 263 261 258 254 249 246 244 242 245 245 242 239 236 236 238 235 232 233 231 225 222 220 215 212 211 210 207 200 201 208 212 214 217 222 222 214 210 206 201 197 195 195 197 200 202 200 199 199 195 190 186 181 177 174 174 173 172 172 170 165 160
292 294 302 307 308 306 305 307 308 309 308 306 305 304 302 299 295 289 281 274 270 268 265 263 262 259 256 252 248 245 241 239 244 247 243 239 237 238 237 230 224 226 230 225 219 219 218 213 209 209 208 202 200 208 212 214 217 221 224 220 214 208 200 196 194 195 200 202 200 199 200 199 193 188 186 181 177 176 176 176 176 177 175 171 166
283 289 299 305 307 307 304 305 307 306 306 306 306 305 303 300 298 294 287 279 271 266 263 261 260 258 255 251 246 244 241 238 241 245 244 239 235 234 234 230 225 221 220 220 220 220 219 215 210 207 206 204 203 207 213 215 217 222 228 227 221 213 203 198 198 199 202 202 200 199 198 196 191 188 186 182 179 178 180 180 180 181 180 175 171
283 289 297 301 308 310 306 302 305 307 307 308 307 305 303 300 297 296 292 286 277 267 260 258 260 257 251 248 246 244 240 236 236 240 241 238 232 229 229 230 231 227 219 216 219 220 217 215 213 209 205 205 206 208 212 213 214 221 227 229 227 219 209 202 200 201 203 204 201 198 196 194 192 190 187 183 182 182 184 184 184 185 183 178 175
300 300 299 302 310 312 306 303 308 311 310 307 305 304 303 300 296 295 294 290 284 273 263 257 256 255 250 246 246 245 239 235 236 239 238 234 229 226 226 227 230 232 230 226 225 223 218 215 215 212 207 205 208 211 212 210 210 219 226 230 232 223 214 207 202 201 203 205 203 199 196 194 193 193 190 185 185 187 188 188 188 188 186 182 180
331 327 318 317 319 315 312 316 319 319 316 312 308 305 303 300 298 296 294 291 285 278 271 262 253 249 248 246 245 243 238 237 239 239 237 234 231 228 228 229 231 233 234 235 234 226 219 217 216 214 210 208 210 213 212 209 209 216 224 230 233 226 218 212 206 203 204 205 204 200 197 196 195 195 193 189 189 191 192 193 192 192 190 187 185
347 344 336 328 324 321 323 330 332 334 337 334 327 321 312 308 306 302 300 297 290 282 274 266 255 248 245 245 246 242 238 238 240 241 237 233 233 232 231 232 234 233 231 234 237 231 223 223 221 215 210 210 212 213 212 208 206 214 224 230 232 227 220 215 210 205 205 205 204 202 200 199 198 198 196 194 194 194 195 197 197 196 194 191 189
353 352 348 340 334 331 334 339 340 343 351 350 344 337 326 320 319 315 309 304 297 286 272 261 254 249 246 244 244 242 239 238 240 242 241 238 236 234 233 234 235 232 228 230 233 232 228 226 223 218 211 209 212 213 211 208 205 210 220 227 229 228 222 216 211 206 205 205 204 203 203 201 201 201 200 198 198 198 199 200 200 200 198 195 194
360 355 351 348 345 343 345 346 343 345 349 347 342 339 330 322 320 317 311 306 300 288 269 257 251 248 244 241 242 243 240 238 240 242 243 243 242 238 234 234 234 231 227 227 229 230 230 226 219 217 214 209 210 212 210 208 206 209 217 222 223 224 223 218 212 207 205 205 205 205 205 205 205 205 203 202 201 201 202 203 203 203 202 200 198
7 1 357 353 348 347 350 350 345 344 347 345 341 339 336 330 325 321 316 308 297 281 264 256 257 254 247 243 245 247 244 240 240 243 244 243 243 242 237 234 233 229 224 225 226 226 228 225 215 211 210 208 209 211 209 205 205 210 217 224 222 220 221 219 214 210 207 206 206 206 207 207 208 209 208 206 204 204 206 206 207 207 206 204 203
13 10 6 358 351 349 350 349 344 341 342 343 341 337 335 334 331 329 326 315 298 284 274 268 269 267 259 254 253 253 250 245 245 246 246 245 241 239 237 233 230 227 221 219 221 224 226 223 216 210 208 207 206 206 204 199 203 215 222 226 225 221 221 217 212 210 210 210 209 208 209 209 209 211 211 209 207 207 209 210 210 211 209 208 208
20 16 11 6 359 354 351 346 341 338 337 340 340 336 334 333 331 326 324 321 306 292 288 284 280 275 269 262 258 257 254 252 250 246 247 248 244 240 237 232 229 226 220 217 219 223 224 223 221 214 209 208 204 202 203 199 201 213 222 227 228 224 220 216 211 209 211 213 213 211 210 210 211 212 213 212 211 210 211 213 213 213 212 211 212
26 22 16 11 7 2 355 347 338 333 333 336 338 337 334 333 332 324 316 314 313 308 302 295 288 281 276 271 265 262 259 258 255 250 249 250 246 242 237 231 228 225 222 220 221 223 223 224 224 217 209 207 202 200 204 201 201 208 214 219 224 224 221 217 213 212 212 214 216 214 212 210 210 212 213 213 214 213 214 215 215 215 214 214 216
28 27 23 18 14 9 4 357 345 334 330 327 328 331 332 333 333 327 315 307 306 312 312 302 294 285 276 272 271 271 268 266 265 260 256 250 244 245 241 231 227 226 224 222 221 221 219 218 222 220 213 207 202 202 205 202 203 210 213 212 213 217 220 220 218 218 216 215 216 215 215 213 211 212 213 214 215 216 216 217 217 216 215 216 219
25 25 25 23 21 16 11 6 358 347 336 328 326 326 326 328 331 328 321 311 303 303 303 301 301 295 282 275 276 279 277 275 275 270 261 250 244 246 243 235 230 229 225 221 220 219 216 214 217 218 215 209 203 203 204 202 202 209 214 215 215 214 216 217 219 221 216 213 214 213 212 212 211 211 213 214 215 217 218 218 218 217 217 218 221
21 19 19 19 19 18 16 12 6 358 350 346 345 339 329 325 326 326 324 316 305 300 295 294 299 298 291 286 282 280 280 279 277 273 264 252 247 248 247 240 233 229 224 220 218 216 212 212 214 215 213 211 205 202 203 204 204 205 209 216 221 219 217 214 215 217 214 210 210 210 210 210 211 212 213 214 216 216 216 217 217 217 218 219 222
22 18 14 12 13 15 16 15 11 7 3 0 357 350 339 330 324 323 323 320 312 306 304 303 300 297 295 294 291 285 283 281 276 271 262 252 250 252 252 246 237 229 224 221 220 217 212 210 212 213 211 210 208 205 204 207 208 205 206 213 220 220 214 210 212 213 211 208 208 208 208 210 212 214 216 218 218 218 217 217 218 218 218 219 222
21 19 15 12 10 10 12 13 12 11 10 6 360 353 345 335 328 324 323 322 317 313 310 304 298 297 304 307 306 301 295 290 282 270 258 251 250 252 253 250 243 236 229 224 220 218 215 212 212 213 213 212 210 207 204 206 209 209 209 212 216 217 211 208 211 213 209 208 211 212 212 212 215 218 221 223 224 223 222 222 222 221 220 220 222
18 20 19 15 12 10 9 11 10 10 10 8 2 356 349 341 334 329 326 324 321 318 313 306 301 304 310 311 308 307 304 300 291 278 261 250 250 253 251 246 243 241 236 231 225 218 216 215 214 216 217 216 214 209 206 208 210 211 212 212 213 213 210 209 213 216 213 208 211 217 219 218 220 223 224 226 227 227 227 227 226 223 221 221 223
15 18 21 20 17 14 12 12 11 10 11 10 6 2 357 350 343 336 330 328 328 326 321 313 308 306 302 298 298 301 305 304 299 292 275 253 249 251 244 234 235 240 239 236 233 228 223 221 219 219 220 220 217 213 211 212 211 209 213 216 212 209 208 210 214 218 217 212 212 217 222 222 223 224 225 225 227 228 227 226 225 224 224 224 224
14 15 20 23 22 18 16 15 13 11 12 12 11 8 5 1 355 348 340 333 332 332 326 316 312 306 295 291 292 293 294 295 296 295 283 267 257 248 234 225 230 237 236 234 234 232 229 227 225 224 224 223 220 217 214 214 212 210 213 218 215 209 208 212 215 218 219 218 216 218 221 222 220 220 221 221 220 220 221 223 225 225 225 226 227
13 15 20 23 23 20 18 16 15 13 11 10 11 11 10 8 5 2 356 349 342 335 329 320 310 298 289 286 287 287 285 284 285 283 278 276 270 254 237 230 231 231 229 229 229 226 224 225 226 228 229 225 222 219 216 215 213 212 217 224 219 212 210 213 215 217 219 221 220 219 220 220 217 215 216 217 217 216 216 221 224 224 225 226 226
13 17 22 23 23 21 19 17 16 14 11 9 9 11 11 11 10 11 10 7 2 348 337 330 315 298 287 281 279 279 280 281 279 273 266 267 268 259 248 241 235 229 228 228 226 223 223 224 225 227 227 224 221 218 214 212 210 211 219 223 214 208 209 211 212 214 216 218 218 218 219 218 214 214 214 216 220 220 219 219 219 218 218 216 213
14 19 22 20 19 19 18 15 15 15 14 11 9 8 9 10 11 14 16 16 15 9 358 343 328 312 299 288 279 275 275 276 276 272 262 257 260 256 250 246 242 235 230 227 223 221 220 221 221 222 220 219 218 216 213 212 212 212 214 211 204 203 208 210 209 211 214 215 215 215 217 217 216 214 214 216 220 219 215 211 204 199 198 199 201
18 23 24 18 16 17 17 14 14 15 16 14 12 10 9 9 10 13 15 17 18 17 13 3 347 331 320 307 288 277 274 271 269 268 260 253 252 251 247 246 246 241 232 223 219 216 217 218 217 217 217 215 214 215 215 216 215 213 212 211 208 207 208 207 207 207 208 211 214 213 212 212 212 211 208 201 196 197 198 194 187 185 188 191 195
25 30 30 21 16 16 15 12 13 16 16 15 14 12 10 9 10 12 14 16 18 18 16 13 5 351 337 325 302 284 279 272 267 267 264 257 252 250 246 244 244 244 238 229 222 216 216 217 216 217 218 215 215 217 218 219 218 213 212 215 217 215 211 208 209 209 206 206 208 208 208 207 206 205 202 191 176 172 180 185 185 188 191 193 194